Date_and_time,latitude,longitude,wind_speed,RelWindDirFrom,WindDirFrom,air_pressure,air_temperature,relative_humidity,Temp,platform_speed_wrt_ground,air_pressure_at_mean_sea_level,platform_orientation
2018-07-03 00:00,50.911735,-96.982525,11.7,14.1,50,982.45,21.5,65,21.18,0.0,1008.08,360.0
2018-07-03 00:10,50.911735,-96.98252,10.4,13.0,40,982.59,21.0,65,21.09,0.0,1008.24,360.0
2018-07-03 00:20,50.9117366666667,-96.98252,10.5,14.1,46,982.74,20.9,66,21.01,0.0,1008.40,360.0
2018-07-03 00:30,50.9117366666667,-96.9825183333333,10.6,13.8,51,982.88,20.6,68,20.93,0.0,1008.55,360.0
2018-07-03 00:40,50.911735,-96.98252,9.9,13.1,49,983.06,20.7,67,20.86,0.0,1008.72,360.0
2018-07-03 00:50,50.9117366666667,-96.9825216666667,9.0,11.8,51,983.11,20.7,67,20.81,0.0,1008.78,360.0
2018-07-03 01:00,50.9117366666667,-96.9825216666667,7.6,10.3,55,983.25,20.8,66,20.77,0.0,1008.93,79.9
2018-07-03 01:10,50.91172,-96.982515,7.5,10.2,57,983.35,20.8,66,20.73,0.0,1009.03,79.9
2018-07-03 01:20,50.9117433333333,-96.9825233333333,8.0,11.2,57,983.48,21.2,64,20.71,0.0,1009.14,79.9
2018-07-03 01:30,50.9117483333333,-96.9825166666667,7.0,11.0,71,983.61,21.3,66,20.71,0.0,1009.27,79.9
2018-07-03 01:40,50.911735,-96.9825316666667,10.5,14.1,80,983.54,20.6,71,20.67,0.0,1009.26,79.9
2018-07-03 01:50,50.9117333333333,-96.98253,9.9,13.4,78,983.62,20.1,73,20.60,0.0,1009.38,79.9
2018-07-03 02:00,50.9117316666667,-96.9825266666667,7.7,11.6,68,983.79,19.9,73,20.53,0.0,1009.59,360.0
2018-07-03 02:10,50.91173,-96.98253,8.4,10.7,77,983.98,19.9,73,20.47,0.0,1009.78,360.0
2018-07-03 02:20,50.9117316666667,-96.9825316666667,6.9,9.3,73,984.14,19.9,72,20.42,0.0,1009.96,360.0
2018-07-03 02:30,50.9117333333333,-96.9825616666667,5.8,8.7,74,984.32,19.9,71,20.38,0.0,1010.14,360.0
2018-07-03 02:40,50.91174,-96.98254,5.2,7.2,71,984.41,19.9,71,20.35,0.0,1010.23,360.0
2018-07-03 02:50,50.9117366666667,-96.982535,5.0,7.4,70,984.46,19.8,72,20.33,0.0,1010.29,360.0
2018-07-03 03:00,50.9117383333333,-96.9825433333333,5.8,8.2,71,984.58,19.8,72,20.31,0.0,1010.40,293.9
2018-07-03 03:10,50.9117283333333,-96.9825316666667,6.5,8.8,73,984.70,19.8,71,20.28,0.0,1010.51,293.9
2018-07-03 03:20,50.9117283333333,-96.9825316666667,5.7,8.1,65,984.77,19.8,72,20.26,0.0,1010.58,293.9
2018-07-03 03:30,50.9117283333333,-96.98253,6.0,8.5,68,984.83,19.8,72,20.25,0.0,1010.68,293.9
2018-07-03 03:40,50.9117316666667,-96.9825283333333,8.1,10.2,52,984.86,19.7,75,20.23,0.0,1010.73,293.9
2018-07-03 03:50,50.9117466666667,-96.982515,6.8,9.8,43,984.93,19.5,75,20.20,0.0,1010.82,293.9
2018-07-03 04:00,50.9117066666667,-96.9825283333333,5.0,8.1,30,985.07,19.1,74,20.14,0.0,1010.98,360.0
2018-07-03 04:10,50.9117283333333,-96.9825333333333,5.6,8.6,32,985.14,18.8,73,20.04,0.0,1011.07,360.0
2018-07-03 04:20,50.9117333333333,-96.9825216666667,4.9,7.2,28,985.09,18.7,72,19.96,0.0,1011.02,360.0
2018-07-03 04:30,50.9117333333333,-96.98252,5.6,8.5,19,985.20,18.4,72,19.86,0.0,1011.15,360.0
2018-07-03 04:40,50.9117166666667,-96.98252,4.9,8.0,22,985.26,18.1,74,19.73,0.0,1011.22,360.0
2018-07-03 04:50,50.9117266666667,-96.9825283333333,4.7,8.0,34,985.26,18.3,75,19.64,0.0,1011.22,360.0
2018-07-03 05:00,50.9117266666667,-96.9825266666667,5.8,8.1,30,985.38,18.5,76,19.60,0.0,1011.33,90.0
2018-07-03 05:10,50.91173,-96.9825266666667,5.3,8.7,39,985.33,18.5,78,19.57,0.0,1011.29,90.0
2018-07-03 05:20,50.9117316666667,-96.9825283333333,5.6,9.1,13,985.36,18.1,80,19.55,0.0,1011.33,90.0
2018-07-03 05:30,50.911695,-96.9825,5.1,6.5,351,985.42,16.7,87,19.42,0.0,1011.47,90.0
2018-07-03 05:40,50.9117166666667,-96.982525,5.8,6.9,342,985.53,15.8,93,19.22,0.0,1011.62,90.0
2018-07-03 05:50,50.911725,-96.98253,5.7,7.1,349,985.53,15.2,99,19.02,0.0,1011.67,90.0
2018-07-03 06:00,50.9117233333333,-96.9825333333333,6.1,7.9,356,985.62,15.1,100,18.84,0.0,1011.77,360.0
2018-07-03 06:10,50.9117183333333,-96.98252,6.2,8.2,1,985.57,15.5,100,18.65,0.0,1011.70,360.0
2018-07-03 06:20,50.9117216666667,-96.982525,5.8,8.1,3,985.60,15.8,100,18.51,0.0,1011.75,360.0
2018-07-03 06:30,50.9117166666667,-96.98253,5.0,8.3,12,985.63,16.1,100,18.43,0.0,1011.77,360.0
2018-07-03 06:40,50.911725,-96.9825216666667,5.6,8.2,14,985.78,16.5,100,18.40,0.0,1011.90,360.0
2018-07-03 06:50,50.911725,-96.9825266666667,4.7,7.7,2,985.81,16.1,100,18.37,0.0,1011.94,360.0
2018-07-03 07:00,50.9117216666667,-96.98253,5.5,9.4,12,985.87,16.5,99,18.32,0.0,1011.98,17.9
2018-07-03 07:10,50.9117333333333,-96.982525,4.3,6.9,336,986.03,15.4,100,18.30,0.0,1012.22,17.9
2018-07-03 07:20,50.911735,-96.9825366666667,5.3,6.9,351,985.96,14.8,100,18.26,0.0,1012.24,17.9
2018-07-03 07:30,50.9117383333333,-96.9825316666667,5.4,9.0,14,985.99,15.1,100,18.14,0.0,1012.29,17.9
2018-07-03 07:40,50.9117416666667,-96.982535,5.9,10.5,24,985.93,16.0,100,18.02,0.0,1012.22,17.9
2018-07-03 07:50,50.9117416666667,-96.982535,5.8,10.3,20,986.05,16.5,96,17.98,0.0,1012.32,17.9
2018-07-03 08:00,50.9117383333333,-96.9825333333333,4.9,9.1,356,986.40,16.0,97,17.96,0.0,1012.68,347.1
2018-07-03 08:10,50.9117366666667,-96.9825333333333,4.9,6.0,338,986.57,15.2,100,17.97,0.0,1012.89,347.1
2018-07-03 08:20,50.91174,-96.9825216666667,5.1,6.3,343,986.57,14.6,100,17.95,0.0,1012.90,347.1
2018-07-03 08:30,50.9117383333333,-96.9825166666667,6.9,8.1,346,986.46,14.4,100,17.87,0.0,1012.78,347.1
2018-07-03 08:40,50.9117083333333,-96.98253,6.2,7.4,353,986.23,13.6,100,17.66,0.0,1012.60,347.1
2018-07-03 08:50,50.91171,-96.9825266666667,5.4,7.1,4,986.20,14.0,100,17.47,0.0,1012.53,347.1
2018-07-03 09:00,50.9117216666667,-96.982525,6.6,10.3,23,986.21,15.2,100,17.41,0.0,1012.53,170.2
2018-07-03 09:10,50.91172,-96.98253,7.7,12.0,34,986.31,16.6,100,17.43,0.0,1012.60,170.2
2018-07-03 09:20,50.9117216666667,-96.98253,8.3,12.3,45,986.25,17.2,100,17.59,0.0,1012.49,170.2
2018-07-03 09:30,50.9117183333333,-96.98253,9.4,12.2,56,986.37,17.6,100,17.79,0.0,1012.55,170.2
2018-07-03 09:40,50.9117366666667,-96.9825233333333,9.6,13.1,64,986.30,17.9,100,17.97,0.0,1012.45,170.2
2018-07-03 09:50,50.9117183333333,-96.982525,9.9,12.8,64,986.34,17.8,100,18.11,0.0,1012.52,170.2
2018-07-03 10:00,50.9117316666667,-96.98252,10.4,13.7,64,986.00,17.7,100,18.19,0.0,1012.22,12.9
2018-07-03 10:10,50.9117283333333,-96.9825233333333,11.4,14.9,60,985.88,17.5,100,18.22,0.0,1012.12,12.9
2018-07-03 10:20,50.91173,-96.9825233333333,10.5,14.6,62,986.05,17.4,100,18.23,0.0,1012.31,12.9
2018-07-03 10:30,50.91173,-96.9825233333333,11.4,15.2,60,986.04,17.3,100,18.22,0.0,1012.35,12.9
2018-07-03 10:40,50.91173,-96.9825216666667,11.9,16.8,57,985.95,17.3,100,18.20,0.0,1012.24,12.9
2018-07-03 10:50,50.91173,-96.9825216666667,13.7,18.2,56,986.06,17.2,100,18.18,0.0,1012.30,12.9
2018-07-03 11:00,50.91173,-96.98252,13.6,18.1,57,986.33,17.1,100,18.15,0.0,1012.52,170.2
2018-07-03 11:10,50.91173,-96.98252,12.2,16.5,61,986.60,16.9,100,18.10,0.0,1012.78,170.2
2018-07-03 11:20,50.9117283333333,-96.9825216666667,10.9,14.7,66,986.73,16.8,100,18.05,0.0,1012.89,170.2
2018-07-03 11:30,50.9117216666667,-96.98252,11.1,14.8,66,986.76,16.6,100,17.98,0.0,1012.92,170.2
2018-07-03 11:40,50.9117466666667,-96.98252,12.1,16.0,59,986.54,16.5,100,17.90,0.0,1012.71,170.2
2018-07-03 11:50,50.91174,-96.9825233333333,12.5,16.7,58,986.31,16.5,100,17.84,0.0,1012.47,170.2
2018-07-03 12:00,50.91174,-96.9825216666667,11.0,15.0,67,986.55,16.6,100,17.81,0.0,1012.73,360.0
2018-07-03 12:10,50.9117366666667,-96.9825216666667,11.1,16.0,63,986.83,16.6,100,17.77,0.0,1013.01,360.0
2018-07-03 12:20,50.911735,-96.9825233333333,10.1,13.9,66,987.21,16.8,100,17.76,0.0,1013.40,360.0
2018-07-03 12:30,50.911735,-96.9825233333333,10.2,14.8,64,987.44,17.1,100,17.79,0.0,1013.63,360.0
2018-07-03 12:40,50.91174,-96.9825283333333,10.7,14.2,58,987.50,16.9,100,17.80,0.0,1013.70,360.0
2018-07-03 12:50,50.91174,-96.9825616666667,10.9,14.8,53,987.49,16.7,100,17.79,0.0,1013.70,360.0
2018-07-03 13:00,50.9117366666667,-96.9825466666667,11.9,14.9,46,987.50,16.7,100,17.77,0.0,1013.72,288.0
2018-07-03 13:10,50.91172,-96.982515,12.4,15.5,47,987.58,16.7,100,17.76,0.0,1013.81,288.0
2018-07-03 13:20,50.9117266666667,-96.982525,12.1,15.8,52,987.80,16.7,100,17.73,0.0,1014.05,288.0
2018-07-03 13:30,50.9117266666667,-96.982525,10.6,14.8,56,987.99,16.8,100,17.73,0.0,1014.23,288.0
2018-07-03 13:40,50.9117283333333,-96.9825266666667,10.2,13.3,60,988.19,16.8,100,17.72,0.0,1014.45,288.0
2018-07-03 13:50,50.9117266666667,-96.982525,12.0,15.2,50,988.33,16.7,100,17.71,0.0,1014.59,288.0
2018-07-03 14:00,50.9117216666667,-96.9825183333333,12.4,15.0,49,988.54,16.6,99,17.69,0.0,1014.81,360.0
2018-07-03 14:10,50.911725,-96.9825216666667,11.6,15.4,53,988.60,16.8,99,17.67,0.0,1014.85,360.0
2018-07-03 14:20,50.9117283333333,-96.982525,12.2,16.0,48,988.41,16.9,99,17.67,0.0,1014.64,360.0
2018-07-03 14:30,50.911725,-96.9825183333333,10.7,14.4,39,988.39,16.8,99,17.69,0.0,1014.63,360.0
2018-07-03 14:40,50.9117316666667,-96.9825216666667,12.4,16.8,42,988.50,16.9,99,17.69,0.0,1014.75,360.0
2018-07-03 14:50,50.911735,-96.9825183333333,10.8,13.8,47,988.74,17.0,99,17.69,0.0,1014.99,360.0
2018-07-03 15:00,50.9117366666667,-96.98252,9.7,13.7,52,988.82,17.4,96,17.72,0.0,1015.06,360.0
2018-07-03 15:10,50.911735,-96.9825216666667,10.2,15.7,62,988.75,17.8,94,17.77,0.0,1014.97,360.0
2018-07-03 15:20,50.9117333333333,-96.9825233333333,11.1,15.3,56,988.66,17.8,96,17.83,0.0,1014.87,360.0
2018-07-03 15:30,50.9117333333333,-96.9825216666667,12.1,17.4,57,988.67,17.7,97,17.87,0.0,1014.88,360.0
2018-07-03 15:40,50.9117283333333,-96.9825083333333,15.0,19.3,52,988.28,17.7,97,17.89,0.0,1014.49,360.0
2018-07-03 15:50,50.911765,-96.9825516666667,15.3,18.9,48,988.01,17.8,97,17.91,0.0,1014.21,360.0
2018-07-03 16:00,50.9117283333333,-96.9825166666667,15.8,20.6,46,987.75,17.6,97,17.95,0.0,1013.94,103.9
2018-07-03 16:10,50.91173,-96.9825316666667,14.1,17.9,45,987.56,17.8,95,17.98,0.0,1013.73,103.9
2018-07-03 16:20,50.91173,-96.98253,13.5,16.8,49,987.51,18.1,92,18.05,0.0,1013.67,103.9
2018-07-03 16:30,50.9117316666667,-96.9825366666667,12.2,15.7,44,987.45,18.2,92,18.13,0.0,1013.60,103.9
2018-07-03 16:40,50.9117083333333,-96.9824983333333,11.9,14.8,46,987.49,18.2,90,18.20,0.0,1013.64,103.9
2018-07-03 16:50,50.9117283333333,-96.98252,11.0,14.7,44,987.67,18.4,87,18.26,0.0,1013.80,103.9
2018-07-03 17:00,50.9117283333333,-96.9825283333333,10.9,14.8,53,987.78,18.7,88,18.34,0.0,1013.88,360.0
2018-07-03 17:10,50.9117266666667,-96.982525,10.8,14.8,52,987.88,19.0,85,18.41,0.0,1013.97,360.0
2018-07-03 17:20,50.9117283333333,-96.9825283333333,9.2,13.8,70,988.05,19.4,83,18.50,0.0,1014.13,360.0
2018-07-03 17:30,50.91173,-96.9825283333333,10.3,13.7,61,988.03,19.4,83,18.57,0.0,1014.10,360.0
2018-07-03 17:40,50.91173,-96.9825283333333,10.0,14.7,50,988.09,19.4,81,18.63,0.0,1014.17,360.0
2018-07-03 17:50,50.91174,-96.9825516666667,9.7,13.4,53,988.17,19.8,78,18.70,0.0,1014.23,360.0
2018-07-03 18:00,50.9117366666667,-96.9825383333333,11.4,14.3,40,988.05,19.7,78,18.81,0.0,1014.10,270.0
2018-07-03 18:10,50.9117416666667,-96.9825316666667,11.5,15.0,47,988.07,19.8,77,18.91,0.0,1014.11,270.0
2018-07-03 18:20,50.911725,-96.9825166666667,10.9,14.1,53,988.06,20.4,75,19.01,0.0,1014.07,270.0
2018-07-03 18:30,50.9116983333333,-96.9825466666667,8.9,12.6,55,988.22,20.8,74,19.13,0.0,1014.21,270.0
2018-07-03 18:40,50.9117316666667,-96.9825333333333,8.7,12.8,68,988.49,21.1,72,19.23,0.0,1014.47,270.0
2018-07-03 18:50,50.9117266666667,-96.9825133333333,9.0,12.0,65,988.49,21.0,73,19.30,0.0,1014.46,270.0
2018-07-03 19:00,50.9117283333333,-96.982525,9.5,13.1,60,988.54,20.7,74,19.36,0.0,1014.51,270.0
2018-07-03 19:10,50.9117316666667,-96.9825316666667,9.6,13.1,73,988.81,20.9,74,19.41,0.0,1014.76,270.0
2018-07-03 19:20,50.9117316666667,-96.98253,8.5,12.2,70,988.90,21.4,71,19.46,0.0,1014.83,270.0
2018-07-03 19:30,50.911735,-96.9825283333333,8.5,11.6,64,988.89,21.5,71,19.53,0.0,1014.82,270.0
2018-07-03 19:40,50.911735,-96.9825283333333,9.9,12.8,50,988.82,21.3,71,19.59,0.0,1014.73,270.0
2018-07-03 19:50,50.911745,-96.9825516666667,9.7,11.8,46,988.74,21.2,70,19.66,0.0,1014.67,270.0
2018-07-03 20:00,50.9117383333333,-96.982525,9.7,12.0,53,988.70,21.6,68,19.76,0.0,1014.60,360.0
2018-07-03 20:10,50.911745,-96.9825366666667,8.2,11.3,60,988.79,22.0,67,19.84,0.0,1014.65,360.0
2018-07-03 20:20,50.91174,-96.98253,8.1,10.7,62,988.76,22.4,67,19.92,0.0,1014.58,360.0
2018-07-03 20:30,50.9117333333333,-96.98252,7.7,10.5,59,988.71,22.1,68,19.98,0.0,1014.53,360.0
2018-07-03 20:40,50.91174,-96.9825216666667,7.1,10.3,66,988.82,22.7,66,20.04,0.0,1014.62,360.0
2018-07-03 20:50,50.9117383333333,-96.98252,9.5,13.4,75,988.88,22.8,66,20.11,0.0,1014.69,360.0
2018-07-03 21:00,50.9117366666667,-96.9825166666667,12.2,14.1,81,988.99,22.6,68,20.15,0.0,1014.80,90.0
2018-07-03 21:10,50.9117333333333,-96.98252,10.1,14.3,72,989.02,22.6,68,20.18,0.0,1014.81,90.0
2018-07-03 21:20,50.9117183333333,-96.9825433333333,8.3,12.7,67,988.89,22.8,68,20.24,0.0,1014.67,90.0
2018-07-03 21:30,50.9117316666667,-96.982515,8.0,10.4,62,988.81,23.0,66,20.31,0.0,1014.59,90.0
2018-07-03 21:40,50.9117233333333,-96.982515,8.2,11.2,59,988.82,22.5,68,20.38,0.0,1014.62,90.0
2018-07-03 21:50,50.91173,-96.98252,6.2,10.2,58,988.97,23.0,68,20.43,0.0,1014.73,90.0
2018-07-03 22:00,50.9117366666667,-96.9825566666667,6.3,9.0,56,989.04,23.1,68,20.51,0.0,1014.79,283.9
2018-07-03 22:10,50.9117316666667,-96.9825533333333,7.3,9.5,55,988.90,23.1,68,20.58,0.0,1014.63,283.9
2018-07-03 22:20,50.9117266666667,-96.9825066666667,7.7,9.4,51,988.85,23.1,69,20.66,0.0,1014.59,283.9
2018-07-03 22:30,50.91173,-96.9825216666667,7.3,9.2,47,988.91,23.0,70,20.73,0.0,1014.63,283.9
2018-07-03 22:40,50.9117266666667,-96.9825166666667,7.1,9.0,48,988.92,23.0,70,20.80,0.0,1014.63,283.9
2018-07-03 22:50,50.9117233333333,-96.9825266666667,7.8,10.1,50,988.84,23.1,71,20.87,0.0,1014.56,283.9
2018-07-03 23:00,50.9117266666667,-96.982525,8.0,10.2,45,988.80,23.2,69,20.93,0.0,1014.51,360.0
2018-07-03 23:10,50.91173,-96.9825283333333,8.9,11.1,41,988.69,23.2,66,21.02,0.0,1014.39,360.0
2018-07-03 23:20,50.9117383333333,-96.9825533333333,8.5,10.5,44,988.70,23.4,67,21.13,0.0,1014.39,360.0
2018-07-03 23:30,50.9117383333333,-96.9825166666667,8.8,11.5,47,988.71,23.6,66,21.24,0.0,1014.40,360.0
2018-07-03 23:40,50.91174,-96.9825033333333,8.4,10.8,48,988.70,23.7,67,21.32,0.0,1014.37,360.0
